GFSFLT2_700_temp_000.txt.gz
Temp
7 6 6 5 6 6 6 5 5 5 5 5 5 5 4 4 4 4 3 3 3 3 3 3 3 3 3 3 3 4 3 3
6 6 5 5 5 6 5 5 5 5 5 5 4 5 4 4 3 3 3 3 3 3 3 3 3 3 2 2 3 3 3 2
6 5 5 5 5 5 5 5 5 5 5 4 4 4 4 4 4 3 3 3 3 3 3 2 2 2 2 2 2 2 2 2
4 4 4 4 5 4 4 5 5 4 4 4 4 4 3 3 3 3 3 3 3 3 3 3 2 2 2 2 2 3 2 2
3 4 4 4 4 4 4 4 4 4 4 3 3 3 3 3 3 3 3 3 3 3 2 2 2 1 1 1 1 2 2 2
4 4 4 4 4 4 4 4 4 3 3 3 3 3 2 2 2 2 2 2 2 2 2 2 2 2 1 1 1 1 1 1
4 4 4 4 4 4 4 3 3 3 3 3 3 2 2 2 2 2 2 2 1 1 1 1 1 1 2 2 1 1 1 1
4 4 4 4 4 4 4 4 3 3 3 3 2 2 2 2 1 1 1 1 1 1 1 2 2 2 1 1 2 1 1 1
4 2 4 4 4 4 3 4 3 3 2 2 2 2 1 1 1 1 1 0 1 1 1 0 1 1 1 2 2 2 2 2
3 2 4 5 4 3 3 3 2 2 2 1 1 1 1 1 0 -0 -0 -0 -0 -0 -0 0 -0 -1 -1 -1 -1 -1 0 1
4 4 4 4 4 3 3 2 2 1 1 0 0 -0 -0 -0 -1 -1 -1 -1 -1 -1 -1 -1 -1 -2 -2 -2 -2 -2 -2 -2
4 4 3 2 3 3 1 1 1 1 1 -0 -0 -0 -0 -1 -1 -1 -2 -2 -2 -2 -2 -2 -2 -2 -2 -2 -2 -2 -2 -2
3 3 2 2 2 2 3 2 1 1 0 -1 -1 -1 -1 -2 -2 -2 -2 -2 -2 -3 -3 -2 -2 -2 -3 -3 -3 -3 -3 -3
3 3 3 2 2 2 2 1 1 -0 -1 -1 -1 -2 -3 -2 -3 -3 -3 -2 -2 -3 -3 -3 -3 -3 -3 -3 -3 -3 -3 -3
3 3 3 2 2 1 1 0 -0 -1 -1 -2 -3 -3 -3 -2 -3 -3 -3 -3 -3 -4 -4 -4 -4 -4 -4 -5 -5 -4 -4 -3
2 2 2 2 1 0 -0 -1 -1 -1 -2 -2 -2 -2 -3 -3 -4 -4 -5 -5 -5 -5 -5 -5 -5 -5 -4 -4 -4 -5 -5 -4
2 1 1 1 1 0 0 -1 -2 -1 -2 -2 -2 -2 -3 -5 -5 -5 -5 -5 -5 -5 -5 -5 -5 -5 -5 -5 -5 -6 -7 -8
1 1 0 0 -0 -0 -1 -2 -2 -2 -2 -2 -2 -4 -5 -5 -5 -5 -5 -5 -5 -6 -6 -6 -7 -7 -8 -9 -9 -9 -8 -9
0 -0 -1 -1 -2 -1 -2 -2 -2 -2 -3 -4 -4 -5 -5 -5 -5 -5 -6 -6 -7 -7 -8 -9 -9 -10 -10 -11 -11 -11 -11 -11
-1 -0 -1 -1 -2 -2 -2 -3 -3 -4 -4 -5 -5 -6 -6 -6 -6 -7 -7 -7 -8 -8 -9 -10 -11 -12 -11 -11 -11 -11 -11 -11

GFSFLT2_700_temp_003.txt.gz
Temp
7 7 6 6 6 6 6 6 6 6 6 5 5 5 5 4 4 4 4 3 3 3 3 3 3 3 3 3 3 2 2 2
6 6 6 6 6 6 6 6 6 5 5 5 5 5 4 4 4 4 3 4 4 3 4 3 3 3 3 3 3 2 2 2
6 6 5 5 5 5 5 5 5 5 5 5 4 4 4 4 4 4 4 4 4 4 3 3 3 3 3 3 3 2 2 2
6 5 5 5 5 5 4 4 4 4 4 4 4 4 4 4 4 4 4 4 4 4 4 3 3 3 3 2 2 2 2 2
6 5 5 5 5 5 5 5 4 4 4 4 4 3 3 3 3 3 3 3 3 3 3 3 3 3 3 2 2 2 1 1
5 4 5 4 5 5 5 4 4 4 4 4 3 3 3 3 2 2 2 2 2 2 2 2 2 3 3 3 2 2 1 1
5 4 4 4 4 4 4 4 4 3 3 3 3 3 3 2 2 2 1 1 1 1 1 1 2 2 2 2 2 2 2 1
4 4 4 4 3 3 3 3 3 3 3 3 3 2 2 2 1 1 1 1 1 1 0 1 1 1 1 2 2 3 3 2
4 3 4 4 3 3 3 3 3 2 2 2 2 2 2 2 1 0 -0 -0 -0 -0 -0 -0 -0 -1 -1 -0 0 1 2 2
4 4 3 2 3 3 3 4 3 2 1 1 1 1 1 1 0 0 -0 -0 -1 -1 -1 -1 -1 -0 -1 -1 -2 -1 -1 -0
4 4 3 4 3 3 3 3 2 2 2 1 0 0 -1 -1 -1 -0 -1 -1 -1 -1 -1 -1 -1 -2 -2 -2 -2 -2 -2 -2
4 4 4 4 2 3 3 3 2 2 2 1 1 0 -0 -1 -1 -2 -2 -2 -1 -2 -2 -2 -3 -3 -3 -3 -3 -3 -3 -2
4 4 3 1 2 2 2 2 2 1 1 -0 -1 -1 -1 -1 -1 -2 -2 -1 -1 -2 -3 -3 -3 -4 -3 -3 -3 -3 -3 -2
3 3 3 2 2 1 1 1 1 0 -1 -1 -1 -2 -2 -1 -1 -1 -2 -2 -3 -3 -3 -3 -3 -4 -4 -4 -4 -3 -3 -3
3 2 2 2 2 1 1 1 0 -0 -1 -1 -1 -1 -1 -2 -2 -3 -3 -4 -4 -5 -5 -5 -5 -4 -5 -5 -5 -4 -4 -4
2 2 2 1 1 0 0 -0 -1 -1 -1 -1 -1 -2 -2 -2 -3 -4 -5 -5 -6 -6 -6 -6 -6 -5 -5 -6 -6 -6 -6 -5
2 2 1 1 1 0 -0 -0 -0 -1 -1 -2 -2 -2 -3 -4 -5 -6 -6 -6 -6 -6 -6 -6 -6 -6 -7 -7 -8 -9 -9 -9
1 0 -0 -0 -0 -0 -0 -0 -1 -2 -2 -2 -3 -4 -5 -5 -5 -6 -7 -6 -6 -6 -6 -7 -8 -8 -9 -10 -11 -11 -10 -11
1 1 1 -0 -1 -1 -2 -2 -3 -4 -4 -5 -5 -6 -6 -6 -6 -7 -7 -7 -7 -7 -8 -9 -10 -10 -11 -11 -12 -11 -12 -12
-0 -0 -1 -1 -2 -2 -3 -3 -4 -5 -4 -5 -6 -6 -6 -6 -7 -7 -8 -8 -8 -9 -9 -11 -11 -12 -12 -12 -12 -12 -12 -12

GFSFLT2_700_temp_006.txt.gz
Temp
7 7 6 7 6 6 6 6 6 6 6 6 5 5 5 5 5 5 4 4 4 3 3 3 3 3 3 3 3 3 3 3
6 6 6 6 6 6 6 6 6 6 5 5 5 5 4 4 4 4 4 4 4 4 3 3 3 2 2 2 2 2 2 2
5 6 5 6 5 5 5 5 5 5 5 5 5 4 4 4 4 4 4 4 4 3 3 3 2 2 2 2 2 2 2 2
5 5 5 5 5 5 5 5 5 5 4 4 4 4 4 4 4 4 3 3 3 3 3 3 3 2 2 2 2 1 1 2
5 5 5 5 4 5 4 4 4 4 4 4 4 4 4 3 3 3 3 2 2 2 3 3 2 2 2 2 2 1 1 1
4 5 4 4 4 5 4 4 4 4 4 4 4 3 3 3 2 2 2 2 2 2 2 2 2 2 2 2 2 1 1 0
4 4 3 4 4 4 4 4 4 4 3 3 3 3 2 2 2 2 1 1 1 1 1 1 1 1 1 2 2 2 1 1
4 4 4 4 4 4 4 3 3 3 2 3 2 3 2 2 1 1 1 1 1 0 0 0 0 1 1 1 1 1 1 0
5 4 4 4 4 4 3 3 2 2 2 3 2 2 2 2 1 1 0 -0 0 0 -0 -1 -1 -0 -0 -0 -0 -0 1 0
4 4 4 4 4 4 3 3 2 2 2 2 2 1 1 0 -0 -1 -1 -1 -1 -1 -1 -1 -1 -1 -1 -1 -1 -2 -2 -2
4 3 3 3 3 3 4 3 2 2 2 1 1 0 -1 -1 -2 -1 -1 -1 -0 -0 -1 -1 -1 -1 -1 -1 -1 -2 -2 -3
4 3 3 2 3 3 3 2 1 1 1 0 0 -0 -1 -2 -1 -1 -1 -1 -1 -1 -1 -2 -2 -2 -2 -2 -2 -2 -3 -4
4 3 3 3 2 2 1 1 1 0 0 -0 -1 -1 -2 -2 -2 -1 -2 -1 -2 -3 -3 -3 -3 -3 -3 -3 -3 -3 -3 -4
3 3 2 1 1 1 1 1 0 -0 -1 -1 -1 -1 -2 -2 -2 -2 -2 -3 -3 -4 -4 -4 -4 -4 -4 -4 -4 -3 -3 -4
2 2 1 1 1 1 1 -0 -1 -1 -1 -1 -1 -1 -1 -2 -2 -3 -4 -4 -5 -5 -6 -6 -6 -6 -5 -5 -5 -5 -5 -4
1 1 1 1 1 0 0 -0 -0 -1 -1 -1 -2 -2 -2 -2 -3 -5 -6 -6 -5 -6 -6 -7 -7 -7 -6 -6 -6 -6 -6 -5
1 1 1 1 0 1 0 -0 -0 -1 -1 -2 -2 -2 -3 -5 -6 -7 -6 -6 -7 -7 -7 -7 -6 -7 -7 -8 -8 -8 -10 -10
1 1 1 1 1 0 -1 -1 -1 -1 -2 -3 -4 -4 -5 -5 -6 -7 -7 -7 -6 -7 -7 -7 -7 -8 -8 -9 -9 -10 -11 -12
1 1 -0 -1 -2 -2 -2 -2 -3 -3 -5 -6 -5 -6 -5 -6 -7 -7 -8 -8 -7 -8 -8 -9 -10 -10 -11 -11 -12 -12 -12 -13
-1 -1 -2 -3 -3 -3 -3 -4 -5 -5 -5 -6 -5 -5 -8 -7 -8 -8 -9 -9 -9 -10 -10 -10 -11 -12 -12 -13 -13 -13 -13 -13

GFSFLT2_700_temp_009.txt.gz
Temp
6 6 6 7 6 6 6 6 6 6 6 6 5 5 5 4 4 4 4 4 4 4 3 3 3 3 3 2 3 3 2 3
6 6 6 6 6 6 6 6 6 5 5 5 5 4 4 4 4 4 4 3 3 3 3 3 3 2 2 2 2 2 2 2
6 6 6 6 5 5 5 5 5 5 5 5 4 4 4 4 4 3 3 3 3 3 3 3 2 2 2 2 2 2 2 2
5 6 6 5 5 5 5 5 5 5 5 4 4 4 4 4 4 3 3 3 2 2 2 2 2 2 2 2 1 1 2 2
5 5 5 5 4 5 5 4 4 4 4 4 4 4 4 4 3 3 2 2 2 2 1 1 1 1 2 2 1 1 1 1
4 5 4 5 5 4 4 4 4 4 4 4 4 4 3 3 2 2 2 1 1 1 1 1 1 1 1 1 1 1 1 2
5 5 5 4 4 5 5 4 4 4 4 3 3 3 2 2 1 1 1 1 0 0 0 0 0 0 0 0 0 1 1 1
6 5 4 3 4 4 4 4 4 4 3 3 2 2 2 1 1 1 1 0 0 -0 -1 -1 -0 -0 1 -0 -1 -0 0 1
5 4 3 3 3 3 4 4 3 3 2 2 2 2 1 1 1 1 0 -0 -1 -1 -1 -1 -0 -0 -0 0 -0 -1 -1 -1
3 3 3 2 2 3 3 2 2 2 1 1 1 1 1 0 0 -0 -1 -1 -1 -2 -1 -1 -1 -1 -1 -1 -0 -1 -1 -2
3 3 3 3 2 1 2 2 2 1 1 1 1 0 -0 -0 -1 -2 -1 -2 -2 -2 -1 -1 -1 -2 -2 -2 -2 -2 -2 -2
3 3 3 2 1 2 2 2 1 1 1 1 0 -0 -1 -1 -2 -2 -2 -2 -2 -2 -2 -2 -2 -3 -3 -3 -3 -3 -3 -3
3 3 3 2 2 2 1 1 1 0 0 -0 -1 -1 -2 -2 -1 -2 -2 -2 -2 -2 -2 -3 -4 -4 -4 -3 -4 -4 -4 -4
3 2 2 2 1 1 1 0 -0 -1 -1 -1 -2 -2 -2 -2 -2 -2 -2 -2 -2 -3 -4 -4 -5 -5 -5 -5 -4 -4 -4 -5
3 2 1 0 0 -0 -1 -1 -1 -2 -2 -2 -2 -2 -2 -2 -2 -2 -3 -4 -4 -5 -5 -6 -6 -6 -6 -7 -6 -6 -6 -6
1 1 1 0 -0 -1 -1 -1 -1 -1 -1 -1 -1 -1 -2 -2 -2 -3 -4 -5 -6 -7 -6 -7 -7 -7 -7 -7 -7 -8 -8 -7
1 0 0 0 -0 -0 0 0 -0 -1 -1 -1 -2 -2 -2 -3 -5 -6 -6 -7 -7 -8 -8 -7 -7 -7 -8 -8 -8 -8 -9 -9
1 1 0 0 0 -0 -1 -1 -1 -2 -2 -2 -3 -4 -5 -5 -6 -6 -6 -8 -8 -8 -9 -9 -9 -9 -9 -9 -9 -10 -10 -11
0 -0 -0 -0 -1 -2 -2 -2 -3 -3 -3 -5 -6 -6 -7 -6 -7 -7 -8 -8 -9 -10 -10 -10 -10 -10 -9 -10 -11 -12 -12 -13
-0 -1 -1 -2 -2 -2 -2 -3 -4 -4 -6 -6 -7 -7 -7 -7 -7 -9 -9 -10 -11 -11 -11 -11 -11 -10 -12 -12 -13 -14 -14 -14

GFSFLT2_700_temp_012.txt.gz
Temp
6 6 6 6 6 6 6 6 5 5 5 5 5 5 4 4 4 4 3 3 3 3 3 3 2 2 2 2 2 2 3 3
6 6 6 6 6 6 6 5 5 5 5 5 5 4 4 4 4 3 3 3 3 2 2 2 2 2 2 2 2 2 2 2
6 6 6 6 6 6 5 5 5 5 5 4 4 4 4 4 4 3 3 3 2 2 2 2 2 2 1 1 1 2 2 2
6 6 6 5 5 5 5 5 5 5 4 4 4 4 4 4 3 3 3 2 2 2 2 2 1 1 1 1 1 1 1 1
5 5 5 5 5 5 5 4 4 4 4 4 4 3 3 3 2 2 2 2 2 2 1 1 1 1 1 1 1 1 1 1
5 5 5 4 5 4 4 4 4 4 3 3 3 3 2 2 2 2 1 1 1 1 1 1 1 1 1 1 1 1 1 1
5 4 4 4 4 4 3 3 3 3 3 3 3 2 2 2 1 1 1 1 0 -0 -0 -0 -0 -0 -0 -0 0 0 1 1
4 3 3 3 3 3 2 2 3 3 3 3 2 2 1 1 1 1 0 0 -0 -1 -1 -1 -1 -1 -1 -1 -1 -0 -0 -0
4 3 3 3 2 2 2 1 2 2 2 2 1 1 1 1 0 -0 -0 -1 -1 -2 -1 -1 -2 -1 -1 -1 -1 -1 -1 -1
3 3 3 2 2 2 1 2 1 2 2 1 1 1 1 -0 -0 -1 -2 -2 -2 -2 -2 -2 -2 -1 -1 -1 -2 -2 -2 -2
3 3 3 2 1 1 1 2 2 1 1 0 0 0 -1 -1 -1 -1 -2 -2 -1 -2 -2 -2 -2 -1 -1 -2 -3 -3 -3 -3
3 3 3 2 1 2 2 1 1 1 0 -0 -0 -1 -1 -1 -1 -2 -1 -2 -2 -2 -2 -2 -2 -2 -2 -3 -3 -4 -4 -4
3 3 2 2 1 1 1 1 -0 -0 -1 -1 -2 -1 -1 -1 -1 -2 -2 -2 -2 -2 -2 -2 -3 -3 -3 -4 -4 -5 -5 -4
3 2 2 1 1 0 -0 -0 -1 -1 -1 -2 -1 -1 -1 -1 -2 -2 -2 -2 -2 -2 -4 -4 -5 -5 -5 -6 -5 -5 -5 -6
3 2 2 1 1 0 -0 -1 -1 -1 -1 -1 -1 -1 -1 -1 -2 -2 -2 -2 -3 -4 -5 -6 -6 -7 -7 -7 -8 -8 -8 -8
2 1 1 0 -0 -1 -1 -1 -0 -0 -1 -1 -1 -1 -1 -2 -2 -3 -4 -5 -6 -7 -7 -7 -7 -8 -8 -8 -8 -9 -8 -8
2 1 0 -0 -0 0 0 0 -0 -1 -1 -1 -2 -2 -3 -4 -5 -5 -6 -6 -7 -7 -7 -8 -9 -9 -9 -9 -9 -10 -10 -9
0 0 0 -0 -0 -0 -1 -1 -2 -2 -2 -3 -3 -4 -4 -5 -7 -7 -7 -7 -8 -8 -9 -10 -10 -10 -10 -10 -10 -10 -10 -10
0 -0 -1 -1 -1 -2 -2 -2 -3 -3 -4 -4 -4 -5 -6 -7 -7 -7 -8 -8 -9 -9 -10 -10 -11 -11 -11 -11 -11 -11 -12 -12
-0 -1 -1 -2 -2 -2 -2 -3 -3 -4 -4 -4 -5 -5 -6 -6 -7 -7 -8 -9 -10 -10 -11 -12 -12 -12 -12 -11 -12 -13 -14 -14

GFSFLT2_700_temp_015.txt.gz
Temp
6 6 6 6 6 5 5 5 5 5 5 5 5 4 4 4 3 3 3 3 3 3 3 3 2 2 2 2 2 2 2 2
6 6 6 6 6 6 5 5 5 5 5 4 4 4 4 4 3 3 3 3 2 3 2 2 2 2 2 2 2 2 2 2
6 6 5 6 5 5 5 5 5 4 4 4 4 4 3 3 3 2 2 2 2 2 2 2 2 2 2 2 2 2 2 2
5 5 5 5 5 4 4 4 4 4 4 3 3 3 3 3 2 2 2 2 2 2 2 1 1 1 1 2 2 2 2 2
5 5 5 4 4 4 4 4 3 3 3 3 3 3 3 2 2 1 2 2 2 1 1 1 1 1 1 1 2 2 2 2
5 5 4 4 4 3 3 3 3 3 3 3 3 2 2 2 1 1 1 1 1 1 0 0 0 1 1 1 1 1 2 1
4 4 4 3 3 3 3 3 3 3 2 2 2 2 2 1 1 1 1 0 0 0 -0 -0 -0 -0 -0 0 0 1 1 1
3 3 3 3 3 3 2 2 2 2 1 1 0 1 1 1 1 1 0 -0 -1 -1 -1 -1 -1 -1 -1 -1 -0 0 0 0
3 3 3 3 3 2 2 1 1 1 1 1 1 -0 1 1 0 -0 -0 -1 -1 -1 -1 -2 -1 -1 -1 -1 -1 -1 -1 -1
3 3 3 2 2 1 1 2 1 1 1 1 0 0 0 0 -1 -1 -0 -1 -1 -2 -1 -1 -2 -2 -2 -2 -2 -2 -2 -2
3 3 3 3 2 1 1 2 1 1 1 0 0 -0 -0 -0 -0 -1 -1 -2 -1 -1 -2 -2 -2 -2 -2 -2 -2 -2 -3 -3
4 3 3 2 2 1 2 1 1 1 1 0 -0 -0 -0 -1 -1 -2 -2 -2 -2 -2 -2 -2 -2 -2 -2 -2 -2 -3 -4 -4
3 3 2 2 1 1 1 1 1 1 0 -0 -0 -1 -1 -2 -2 -2 -2 -2 -2 -2 -2 -2 -3 -3 -3 -4 -4 -4 -4 -5
3 3 2 2 2 1 1 0 -0 -0 -1 -1 -1 -1 -1 -1 -1 -2 -2 -2 -3 -3 -3 -3 -3 -4 -4 -5 -5 -6 -6 -6
3 2 2 1 0 -0 -0 -0 -0 -0 -0 -0 -0 -1 -1 -1 -2 -3 -3 -3 -3 -3 -4 -5 -5 -6 -6 -7 -8 -8 -8 -8
2 2 2 1 0 -0 -1 -1 -1 -1 -1 -1 -2 -2 -2 -2 -3 -3 -3 -4 -5 -5 -6 -7 -8 -8 -8 -9 -10 -10 -10 -10
2 2 1 0 0 -0 -1 -1 -1 -1 -2 -2 -2 -2 -3 -4 -4 -5 -5 -6 -7 -7 -8 -9 -9 -9 -10 -10 -11 -11 -11 -11
2 1 0 -0 -1 -1 -1 -2 -2 -2 -2 -3 -3 -3 -4 -5 -5 -6 -6 -7 -7 -8 -9 -11 -10 -10 -11 -11 -11 -12 -11 -12
1 1 -0 -1 -2 -2 -3 -3 -3 -3 -3 -3 -3 -4 -5 -5 -6 -7 -7 -8 -8 -9 -10 -11 -11 -11 -11 -12 -12 -12 -12 -13
1 0 -1 -1 -2 -3 -3 -3 -3 -3 -3 -4 -4 -5 -6 -7 -7 -7 -8 -8 -9 -10 -11 -11 -12 -12 -12 -13 -13 -13 -14 -14

GFSFLT2_700_temp_021.txt.gz
Temp
4 4 4 5 5 5 5 4 4 4 4 4 4 4 3 3 3 3 3 3 3 3 3 2 2 2 2 2 2 2 2 2
3 4 4 5 5 5 5 4 4 4 4 4 3 3 3 3 3 3 2 2 2 2 2 2 2 2 2 2 2 2 1 1
4 4 5 4 5 4 4 4 4 4 4 3 3 3 3 2 2 2 2 2 2 2 2 2 2 2 2 2 2 1 1 0
5 5 5 5 4 4 4 4 4 3 3 3 3 3 2 2 2 2 1 1 1 1 1 1 2 1 1 1 1 1 1 0
5 4 4 4 4 4 3 3 3 3 3 3 3 2 2 1 1 1 1 1 0 0 0 1 1 1 1 1 1 1 0 0
5 5 4 4 4 3 3 3 3 3 3 2 2 2 1 1 1 0 0 -0 0 0 -0 1 1 1 1 1 1 1 1 0
4 4 4 4 3 3 3 3 3 2 2 2 1 1 1 1 0 0 -0 -1 -0 0 0 0 0 0 0 1 1 0 0 0
4 4 4 3 4 3 3 2 2 2 2 1 1 0 0 1 0 -0 -1 -0 -0 0 0 0 0 -0 -1 -0 -0 -0 -0 -0
4 4 4 4 3 3 3 2 2 1 2 2 1 1 1 0 0 -0 -0 -0 0 0 -0 -0 -1 -1 -1 -1 -1 -1 -2 -2
4 4 4 3 3 2 1 1 2 2 1 1 0 0 0 -0 -0 -0 -0 0 0 -0 -1 -1 -1 -2 -2 -1 -1 -1 -2 -2
4 4 4 3 3 2 1 1 1 1 1 1 0 0 0 0 1 1 -0 -1 -1 -1 -1 -2 -2 -2 -2 -1 -1 -2 -2 -3
4 4 3 3 2 2 2 1 1 1 1 1 1 1 1 0 0 -0 -1 -1 -1 -1 -2 -2 -2 -2 -2 -1 -2 -2 -3 -3
4 3 3 3 2 2 2 1 1 1 0 0 0 0 -0 -1 -1 -1 -1 -1 -1 -2 -2 -2 -2 -2 -3 -2 -2 -2 -4 -6
4 3 3 3 3 2 1 0 0 0 0 -0 -1 -1 -1 -1 -1 -1 -2 -2 -2 -2 -3 -3 -3 -3 -4 -4 -4 -4 -5 -8
4 3 3 3 3 2 1 1 0 -0 -0 -1 -0 -0 -1 -1 -1 -1 -2 -2 -3 -3 -3 -4 -4 -5 -5 -6 -6 -7 -7 -7
3 3 3 2 1 1 1 -1 -2 -1 -1 -0 -1 -1 -1 -1 -2 -2 -3 -3 -3 -4 -5 -5 -5 -6 -6 -7 -8 -10 -11 -10
3 3 2 2 1 1 -0 -0 -1 -1 -1 -1 -1 -2 -2 -2 -3 -3 -3 -4 -4 -5 -5 -5 -6 -7 -8 -8 -10 -11 -12 -13
3 2 2 2 1 1 1 -0 -1 -1 -1 -1 -2 -2 -3 -3 -3 -4 -4 -5 -5 -6 -6 -7 -8 -9 -10 -10 -13 -13 -14 -14
3 2 2 1 1 1 0 -0 -0 -1 -2 -2 -2 -2 -3 -3 -4 -5 -5 -6 -6 -7 -7 -8 -11 -12 -12 -13 -14 -14 -14 -15
2 2 2 1 1 1 0 -1 -1 -2 -2 -2 -3 -3 -3 -4 -5 -5 -6 -6 -7 -7 -9 -11 -12 -12 -13 -14 -14 -15 -15 -15

GFSFLT2_700_temp_024.txt.gz
Temp
2 3 3 4 5 4 4 5 5 4 4 4 4 3 3 3 3 3 3 2 2 2 2 2 2 2 2 2 2 2 2 1
2 4 4 5 4 4 4 4 4 4 4 4 3 3 3 3 3 2 2 2 2 2 2 2 2 2 2 2 2 1 1 1
2 4 4 5 4 4 4 5 5 4 3 3 3 3 3 3 2 2 2 2 1 1 1 1 1 2 1 1 2 1 1 1
3 4 4 4 4 4 4 5 4 4 3 3 3 3 2 3 2 2 2 1 1 1 1 1 1 1 1 1 1 1 1 0
4 4 4 5 4 5 5 4 4 4 3 3 3 3 2 2 2 2 2 2 1 0 -0 0 1 1 1 2 1 1 1 1
4 4 4 5 5 5 4 3 3 3 3 3 2 2 3 2 1 0 -0 0 1 0 0 0 0 0 0 0 1 1 1 1
4 4 4 4 5 4 4 4 3 3 3 3 2 3 2 1 1 1 1 1 1 0 0 -0 -0 0 -0 -0 0 0 0 0
5 5 5 4 4 4 3 3 3 2 3 3 2 2 2 1 1 0 1 1 1 -0 -0 -0 0 0 -0 -0 -0 -1 -0 -1
5 4 4 4 4 3 3 3 2 1 2 3 3 2 2 1 1 1 1 0 1 0 0 0 1 0 -0 -0 -1 -1 -1 -1
5 4 4 4 3 3 2 1 2 3 3 2 2 1 1 0 0 1 -0 0 0 0 1 0 -0 -0 -0 -1 -1 -1 -1 -2
5 4 4 3 3 2 2 2 2 3 2 2 1 0 1 1 1 1 0 0 0 0 0 0 0 -0 -1 -1 -1 -1 -2 -2
5 4 3 3 2 3 1 2 1 2 1 1 1 1 1 1 1 1 0 0 0 -0 -0 -1 -1 -1 -1 -1 -1 -1 -2 -3
5 4 3 3 3 2 2 1 1 1 1 1 1 1 1 0 -0 -0 -0 -0 -0 -0 -0 -1 -1 -1 -1 -2 -2 -2 -2 -4
5 4 4 3 3 3 2 1 2 1 1 1 1 0 0 -0 -1 -1 -1 -0 -1 -1 -1 -1 -1 -2 -3 -3 -2 -2 -3 -3
5 4 3 3 3 2 2 2 0 1 1 1 0 -0 -0 -0 -1 -1 -1 -1 -1 -2 -2 -2 -2 -3 -3 -4 -3 -3 -4 -5
4 4 4 3 2 2 1 1 1 1 0 0 -1 -0 -1 -1 -1 -1 -1 -1 -2 -2 -3 -3 -4 -4 -4 -5 -5 -6 -7 -7
5 4 4 3 2 2 2 2 0 0 -0 -1 -1 -1 -1 -2 -2 -2 -2 -3 -3 -3 -3 -4 -4 -5 -6 -7 -7 -8 -10 -10
4 4 3 3 2 2 2 1 1 1 0 -1 -1 -2 -2 -2 -2 -3 -3 -3 -4 -4 -4 -5 -6 -7 -7 -9 -10 -11 -12 -13
4 3 3 3 2 2 2 1 1 -0 -1 -1 -2 -3 -2 -3 -3 -3 -3 -4 -4 -5 -6 -7 -8 -9 -11 -11 -11 -12 -13 -13
3 3 3 2 2 2 1 0 0 -1 -1 -2 -2 -3 -2 -3 -4 -3 -4 -4 -5 -5 -6 -8 -9 -11 -11 -12 -12 -13 -13 -14

GFSFLT2_700_temp_027.txt.gz
Temp
3 2 2 3 3 3 4 5 4 5 4 4 4 4 4 4 3 3 3 3 3 3 2 3 2 2 2 2 1 1 2 2
2 2 2 3 3 4 4 4 4 4 4 4 4 4 4 4 3 3 3 3 3 2 2 2 2 2 2 2 1 1 2 1
3 2 3 3 4 4 4 4 4 4 4 4 4 4 4 3 3 3 3 2 2 2 1 1 1 1 2 1 1 1 1 1
3 3 3 3 4 4 4 4 4 4 4 4 4 4 3 3 3 3 2 2 1 1 1 2 2 1 1 1 1 2 1 1
3 3 3 4 4 4 4 4 4 4 4 4 4 3 3 3 2 2 2 2 2 1 1 1 1 1 1 1 2 2 1 1
4 3 4 4 5 5 5 5 4 4 4 4 4 4 3 3 2 1 1 1 1 0 1 0 0 1 1 0 1 1 1 1
4 5 4 5 5 5 5 4 4 4 4 4 4 4 3 2 1 1 1 1 1 0 0 0 0 0 0 1 1 0 0 0
4 4 5 5 4 4 4 4 4 5 3 3 3 3 2 1 1 1 1 1 1 1 0 1 1 1 1 1 0 0 0 -0
5 5 5 4 4 4 4 3 4 3 3 2 3 2 2 2 2 1 1 1 1 1 1 1 1 1 1 0 0 0 0 -0
5 5 4 4 4 3 3 4 3 3 3 3 2 2 2 2 1 1 1 1 1 1 1 1 1 1 1 0 0 0 0 -0
5 5 4 3 3 3 3 3 2 3 3 3 2 2 2 1 1 1 1 1 1 1 0 1 1 1 0 0 -0 -0 -0 -1
5 4 4 4 3 3 3 3 2 2 3 2 2 1 1 1 1 1 1 0 -0 0 0 -0 -0 -0 0 -0 -0 -0 -1 -1
5 4 4 3 3 3 3 3 2 2 2 1 1 1 1 1 1 1 -0 -0 -0 -0 -0 -0 -0 -0 -0 -0 -1 -1 -1 -2
4 4 4 3 4 3 3 3 3 2 1 1 1 1 1 0 -0 -0 -1 -1 -1 -1 -1 -1 -1 -1 -1 -1 -1 -1 -1 -2
4 4 4 3 4 3 3 3 2 2 2 1 1 0 -0 -0 -0 -0 -1 -1 -1 -1 -1 -1 -1 -2 -2 -2 -2 -2 -2 -3
4 4 4 4 4 4 3 3 2 2 2 1 1 0 -0 -1 -1 -1 -1 -1 -1 -2 -2 -2 -2 -2 -3 -4 -4 -4 -5 -4
5 4 4 4 4 4 3 2 2 1 1 1 -0 -1 -2 -2 -2 -2 -2 -2 -2 -3 -3 -3 -3 -3 -4 -4 -5 -6 -7 -8
5 5 4 4 4 3 2 2 2 1 1 -1 -1 -2 -2 -2 -2 -2 -2 -3 -3 -3 -3 -4 -4 -4 -5 -6 -7 -8 -10 -11
5 4 4 4 3 3 2 2 1 0 -1 -1 -2 -2 -3 -2 -2 -2 -2 -3 -4 -4 -4 -5 -5 -6 -7 -7 -8 -10 -11 -12
4 4 3 3 3 2 2 2 1 0 -0 -1 -2 -2 -3 -3 -2 -3 -3 -4 -4 -4 -5 -5 -6 -6 -7 -9 -10 -11 -12 -13

GFSFLT2_700_temp_030.txt.gz
Temp
4 3 2 1 1 2 3 4 5 4 4 4 5 5 4 4 4 4 4 3 3 3 3 2 2 2 2 2 2 2 2 2
3 2 2 1 2 3 3 4 4 4 4 4 4 4 4 4 4 3 3 3 3 3 2 2 2 2 3 3 3 2 2 2
1 1 2 2 2 3 4 4 4 4 4 4 4 4 4 4 3 3 3 3 2 2 2 2 2 2 2 3 2 1 1 2
2 3 3 2 3 3 4 4 4 4 4 4 4 3 4 4 3 3 2 2 2 2 2 2 1 2 2 2 2 2 2 2
2 2 2 2 2 4 4 4 4 4 3 3 3 3 3 3 3 2 2 1 1 1 1 1 1 2 2 2 2 2 2 2
3 2 2 2 4 4 4 4 4 4 3 3 4 3 3 3 2 2 2 2 1 1 1 1 1 1 1 1 1 1 1 1
2 3 3 4 4 4 4 4 4 4 3 3 3 3 3 2 2 2 2 2 1 1 1 1 1 0 0 0 0 1 1 1
4 5 4 4 4 4 4 4 4 3 3 3 2 2 3 2 2 1 1 1 1 1 1 1 1 1 1 0 0 0 0 -0
5 4 4 4 4 4 4 4 4 4 4 4 2 2 2 2 1 2 1 2 1 1 1 1 1 1 1 0 0 0 0 0
5 4 4 4 4 4 4 3 3 4 4 3 3 3 2 2 1 1 1 1 1 1 1 1 1 1 1 0 -0 -0 -0 -0
5 4 4 4 4 3 3 3 3 3 3 3 3 3 2 2 2 2 1 1 1 1 1 1 0 0 0 0 -0 -0 -0 -0
4 4 4 4 4 4 4 3 3 4 3 3 3 3 3 2 2 1 1 1 1 1 0 -0 -0 0 -0 -0 -1 -1 -1 -1
5 4 4 4 4 4 4 3 3 3 3 3 3 2 2 1 1 1 1 0 -0 -0 0 0 -0 -0 -0 -1 -1 -1 -1 -2
5 4 4 4 4 4 4 3 3 3 3 2 2 1 1 1 0 0 -1 -1 -1 -1 -1 -1 -1 -1 -1 -1 -1 -1 -1 -2
4 4 4 3 3 3 4 4 3 3 2 2 1 1 0 -0 -1 -1 -1 -2 -2 -2 -1 -1 -1 -2 -2 -2 -2 -2 -2 -2
4 4 4 4 4 3 4 3 3 2 2 1 1 0 -0 -1 -2 -2 -2 -2 -1 -1 -2 -2 -2 -2 -3 -3 -3 -3 -3 -3
5 4 4 4 4 4 4 3 3 2 1 1 0 -0 -1 -1 -2 -2 -3 -2 -2 -2 -3 -3 -3 -4 -4 -4 -4 -4 -5 -5
4 5 5 4 4 4 3 3 2 2 1 0 -0 -1 -2 -2 -3 -3 -3 -3 -3 -3 -3 -3 -4 -4 -4 -4 -5 -5 -6 -7
4 5 5 4 3 3 3 2 2 1 -0 -1 -2 -2 -2 -2 -2 -2 -3 -4 -4 -4 -4 -4 -5 -5 -5 -6 -6 -7 -8 -9
4 4 4 3 3 2 2 1 0 -1 -1 -2 -2 -3 -3 -3 -2 -3 -4 -4 -5 -4 -5 -5 -5 -6 -7 -7 -8 -9 -10 -11

GFSFLT2_700_temp_033.txt.gz
Temp
3 4 2 3 3 3 4 4 3 4 4 4 4 4 4 4 4 4 4 4 4 3 3 3 3 2 2 2 3 2 3 3
3 3 2 1 2 2 2 2 3 4 4 4 4 4 4 4 4 4 4 4 3 3 2 2 2 2 2 2 2 2 2 2
2 2 1 -0 1 3 2 2 3 4 4 4 3 3 3 4 4 3 3 3 2 2 2 2 2 2 2 2 2 2 2 2
1 1 1 1 3 2 2 3 3 3 3 3 3 3 3 3 3 3 3 2 2 2 1 1 2 2 2 2 2 2 2 2
2 2 2 2 2 2 3 3 3 3 3 3 3 3 3 3 3 3 3 2 2 2 2 2 2 2 2 2 1 1 1 1
2 2 2 2 2 2 3 3 3 3 3 3 3 3 3 3 2 2 2 2 1 2 2 1 1 1 1 1 1 1 1 1
3 2 3 4 3 3 3 4 4 3 3 3 3 3 2 2 2 2 2 2 1 1 1 1 1 0 0 0 -0 0 0 0
3 3 4 4 4 4 4 4 3 3 3 3 3 2 2 2 2 1 2 1 1 1 1 1 0 0 -0 -0 -0 0 0 1
4 4 4 4 4 4 4 4 4 3 2 2 2 2 2 1 1 1 1 1 1 1 1 0 -0 -0 0 0 0 1 1 1
5 4 4 4 4 3 3 3 3 3 2 3 3 3 2 2 2 1 1 0 0 1 0 -0 0 1 0 0 0 1 1 1
4 4 4 4 3 3 3 3 3 3 3 3 3 3 3 2 2 1 0 0 1 0 -0 0 1 0 1 1 1 0 0 0
4 4 4 4 4 3 3 3 3 3 3 3 2 3 2 2 2 1 0 1 0 -0 -0 0 0 0 0 0 0 -0 -0 -1
5 4 4 4 4 3 3 3 3 3 2 3 3 2 2 2 1 1 1 1 -0 -0 0 0 -0 -0 -0 -1 -1 -1 -1 -1
5 5 4 4 4 3 3 3 3 3 3 3 2 2 1 1 1 0 -0 -1 -0 -0 -0 -1 -1 -1 -1 -1 -2 -2 -2 -2
5 4 4 4 3 3 3 3 3 3 3 2 2 1 1 0 -0 -0 -1 -1 -1 -1 -2 -2 -2 -2 -2 -2 -2 -2 -2 -2
4 4 3 3 3 3 3 3 3 3 2 2 1 1 0 -0 -1 -1 -1 -2 -2 -2 -2 -2 -2 -3 -3 -3 -3 -3 -3 -3
4 3 3 3 3 3 2 3 3 2 2 2 1 1 0 -1 -1 -2 -2 -2 -3 -3 -3 -3 -4 -4 -4 -4 -4 -5 -5 -5
4 4 3 3 3 3 3 2 3 2 2 1 1 -0 -1 -1 -2 -2 -2 -2 -3 -4 -4 -4 -5 -5 -5 -5 -5 -6 -6 -7
4 4 3 3 4 4 3 3 2 2 1 1 0 -0 -1 -2 -2 -3 -3 -3 -4 -4 -4 -5 -5 -6 -6 -6 -7 -7 -7 -8
4 4 3 3 3 4 3 2 2 1 1 -0 -1 -2 -2 -3 -2 -2 -3 -4 -3 -4 -5 -6 -7 -7 -7 -8 -8 -8 -9 -9